Lone Rock, WI

4:32 PM CDT on April 25, 2017 (GMT -0500)
Tri-County Regional

Weather History for KLNR - March, 2014

Change the Weather History Date:

Wednesday, March 12, 2014

  Actual Average Record
Temperature  
Mean Temperature 27 °F -  
Max Temperature 37 °F 37 °F 64 °F (2016)
Min Temperature 12 °F 20 °F -9 °F (1998)
Degree Days  
Heating Degree Days 38    
Moisture  
Dew Point 21 °F    
Average Humidity 72    
Maximum Humidity 93    
Minimum Humidity 43    
Precipitation  
Precipitation 0.03 in - - ()
Sea Level Pressure  
Sea Level Pressure 29.97 in    
Wind  
Wind Speed 11 mph (North)    
Max Wind Speed 18 mph    
Max Gust Speed 30 mph    
Visibility 6 miles    
Events Fog , Snow    
Averages and records for this station are not official NWS values.
T = Trace of Precipitation, MM = Missing Value Source: NWS Daily Summary

Daily Weather History Graph

Daily Weather History Graph

Search for Another Location

Airport or City:

Trip Planner

Search our weather history database for the weather conditions in past years. The results will help you decide how hot, cold, wet, or windy it might be!

Date:

Astronomy

Mar. 12, 2014 Rise Set
Actual Time 7:18 AM CDT 7:03 PM CDT
Civil Twilight 6:49 AM CDT 7:31 PM CDT
Nautical Twilight 6:16 AM CDT 8:04 PM CDT
Astronomical Twilight 5:43 AM CDT 8:38 PM CDT
Moon 3:29 PM CDT (3/12) 4:54 AM CDT (3/12)
Length of Visible Light 12h 42m
Length of Day
11h 45m
Waxing Gibbous, 85% of the Moon is Illuminated
Mar 12
Waxing Gibbous
Mar 16
Full
Mar 23
Last Quarter
Mar 30
New
Apr 7
First Quarter

Hourly Weather History & Observations

Time (CDT) Temp. Windchill Dew Point Humidity Pressure Visibility Wind Dir Wind Speed Gust Speed Precip Events Conditions
12:56 AM 37.9 °F 28.2 °F 26.1 °F 62% 29.82 in 10.0 mi North 18.4 mph 26.5 mph N/A   Clear
1:56 AM 36.0 °F 27.1 °F 28.0 °F 73% 29.83 in 10.0 mi NE 13.8 mph - N/A   Overcast
2:16 AM 36.0 °F 29.0 °F 28.0 °F 73% 29.84 in 10.0 mi NNE 9.2 mph - N/A   Overcast
2:33 AM 35.1 °F 27.9 °F 28.0 °F 76% 29.84 in 10.0 mi NNE 9.2 mph - N/A   Overcast
2:56 AM 35.1 °F 27.4 °F 28.0 °F 76% 29.84 in 10.0 mi NNE 10.4 mph - N/A   Overcast
3:56 AM 35.1 °F 32.2 °F 27.0 °F 72% 29.84 in 10.0 mi North 3.5 mph - N/A   Overcast
4:38 AM 34.0 °F 27.2 °F 27.0 °F 75% 29.84 in 10.0 mi NE 8.1 mph - N/A   Overcast
4:56 AM 34.0 °F 28.8 °F 28.0 °F 79% 29.85 in 10.0 mi NE 5.8 mph - N/A   Overcast
5:56 AM 33.1 °F - 28.0 °F 82% 29.88 in 10.0 mi Calm Calm - N/A   Overcast
6:40 AM 33.1 °F 22.2 °F 23.0 °F 66% 29.89 in 8.0 mi North 17.3 mph 29.9 mph 0.00 in Snow Light Snow
6:54 AM 32.0 °F 22.1 °F 24.8 °F 75% 29.90 in 4.0 mi North 13.8 mph - 0.00 in Snow Light Snow
6:56 AM 32.0 °F 22.5 °F 25.0 °F 75% 29.91 in 4.0 mi North 12.7 mph - 0.00 in Snow Light Snow
7:53 AM 30.2 °F 19.3 °F 23.0 °F 75% 29.92 in 2.0 mi North 15.0 mph - 0.00 in Snow Light Snow
7:56 AM 30.0 °F 19.1 °F 23.0 °F 75% 29.93 in 2.0 mi North 15.0 mph - 0.00 in Snow Light Snow
8:06 AM 30.0 °F 22.4 °F 24.1 °F 79% 29.93 in 1.5 mi North 8.1 mph - 0.00 in Snow Light Snow
8:32 AM 28.9 °F 20.4 °F 24.1 °F 82% 29.94 in 0.5 mi North 9.2 mph - 0.00 in Snow Snow
8:50 AM 26.6 °F 16.8 °F 24.8 °F 93% 29.95 in 0.2 mi ENE 10.4 mph - 0.01 in Fog , Snow Heavy Snow
8:56 AM 26.1 °F 16.2 °F 23.0 °F 88% 29.96 in 0.2 mi ENE 10.4 mph - 0.01 in Fog , Snow Snow
9:05 AM 26.1 °F 18.4 °F 24.1 °F 92% 29.96 in 0.2 mi NE 6.9 mph - 0.01 in Fog , Snow Heavy Snow
9:20 AM 27.0 °F 18.7 °F 24.1 °F 89% 29.96 in 0.5 mi NNE 8.1 mph - 0.02 in Fog , Snow Snow
9:27 AM 27.0 °F 20.5 °F 23.0 °F 85% 29.96 in 0.8 mi NNE 5.8 mph - 0.02 in Snow Light Snow
9:37 AM 27.0 °F 19.5 °F 23.0 °F 85% 29.97 in 1.0 mi NNE 6.9 mph - 0.02 in Snow Light Snow
9:56 AM 27.0 °F 18.0 °F 23.0 °F 85% 29.99 in 0.8 mi NNE 9.2 mph - 0.02 in Snow Light Snow
10:11 AM 27.0 °F 16.7 °F 21.0 °F 78% 29.98 in 1.8 mi NE 11.5 mph - 0.00 in Snow Light Snow
10:56 AM 27.0 °F 18.0 °F 21.9 °F 81% 30.01 in 1.2 mi NE 9.2 mph - 0.00 in Snow Light Snow
11:20 AM 28.0 °F 19.3 °F 21.9 °F 78% 30.01 in 3.0 mi NNW 9.2 mph - 0.00 in Snow Light Snow
11:28 AM 27.0 °F 15.2 °F 21.9 °F 81% 30.01 in 2.5 mi NNW 15.0 mph - 0.00 in Snow Light Snow
11:36 AM 27.0 °F 15.2 °F 19.9 °F 75% 30.01 in 4.0 mi North 15.0 mph - 0.00 in Snow Light Snow
11:56 AM 28.0 °F 18.1 °F 19.0 °F 69% 30.02 in 10.0 mi North 11.5 mph - 0.00 in   Overcast
12:56 PM 28.9 °F 20.4 °F 15.1 °F 56% 30.04 in 10.0 mi North 9.2 mph 18.4 mph N/A   Scattered Clouds
1:56 PM 30.0 °F 21.7 °F 12.9 °F 49% 30.02 in 10.0 mi NW 9.2 mph 19.6 mph N/A   Overcast
2:56 PM 30.9 °F 24.3 °F 12.0 °F 46% 30.01 in 10.0 mi NW 6.9 mph - N/A   Mostly Cloudy
3:56 PM 33.1 °F 24.9 °F 12.9 °F 43% 30.03 in 10.0 mi NNW 10.4 mph - N/A   Mostly Cloudy
4:56 PM 32.0 °F 22.1 °F 12.9 °F 45% 30.04 in 10.0 mi WNW 13.8 mph 20.7 mph N/A   Mostly Cloudy
5:56 PM 30.9 °F 24.3 °F 12.0 °F 46% 30.06 in 10.0 mi WNW 6.9 mph - N/A   Partly Cloudy
6:56 PM 28.0 °F 19.3 °F 10.9 °F 49% 30.07 in 10.0 mi NW 9.2 mph - N/A   Clear
7:56 PM 26.1 °F 19.4 °F 10.0 °F 51% 30.09 in 10.0 mi NW 5.8 mph - N/A   Clear
8:56 PM 21.9 °F 14.5 °F 10.0 °F 60% 30.11 in 10.0 mi NW 5.8 mph - N/A   Clear
9:56 PM 19.9 °F 14.9 °F 9.0 °F 62% 30.12 in 10.0 mi North 3.5 mph - N/A   Clear
10:56 PM 17.1 °F - 10.0 °F 74% 30.12 in 10.0 mi Calm Calm - N/A   Clear
11:56 PM 12.9 °F 6.9 °F 9.0 °F 84% 30.12 in 10.0 mi South 3.5 mph - N/A   Clear